Regional Weather Roundup
Issued by NWS Kansas City/Pleasant Hill, MO

Home | Current Version | Previous Version | Graphics & Text | Print | Product List | Glossary Off
Versions: 1 2 3 4 5 6 7 8 9 10 11 12 13 14 15 16 17 18 19 20 21 22 23 24 25 26 27

000
ASUS43 KEAX 201910
RWREAX

WEATHER ROUNDUP FOR EASTERN KANSAS AND NORTHWEST MISSOURI
NATIONAL WEATHER SERVICE KANSAS CITY/PLEASANT HILL MO
100 PM CST MON FEB 20 2017

KSZ040-057-103>105-MOZ028-029-037-043-202000-
...KANSAS CITY METROPOLITAN AREA...

CITY           SKY/WX    TMP DP  RH WIND       PRES   REMARKS
K.C. INTL      CLOUDY    65  59  81 S16       29.82F
K.C. DOWNTOWN  CLOUDY    67  59  75 SW12      29.82F
LEES SUMMIT    CLOUDY    65  60  84 SW12      29.84F
OLATHE - IXD   PTSUNNY   67  55  65 SW17      29.84F
OLATHE - OJC   PTSUNNY   66  57  72 SW15G21   29.84F
LAWRENCE       CLOUDY    67  55  65 SW14      29.82F

$$

MOZ001>008-011>017-020>025-030>033-038>040-044>046-053-054-202000-
...NORTHERN AND CENTRAL MISSOURI...

CITY           SKY/WX    TMP DP  RH WIND       PRES   REMARKS
ST. JOSEPH     CLOUDY    63  59  87 S15       29.80F
WARRENSBURG    DRIZZLE   63  57  82 SW15      29.86R
WHITEMAN AFB   CLOUDY    68  64  88 SW17G28   29.84R
CLINTON        CLOUDY    66  59  77 S15       29.86S
SEDALIA        CLOUDY    69  58  67 S16G26    29.86F
WARSAW         NOT AVBL
CHILLICOTHE      N/A     65  59  81 S13G20    29.84F
KIRKSVILLE     LGT RAIN  63  57  81 S13       29.83F

$$

MOZ041-047>049-056>058-063>065-088>090-097-202000-
...EASTERN AND SOUTHERN MISSOURI...

CITY           SKY/WX    TMP DP  RH WIND       PRES   REMARKS
ST. LOUIS INTL PTSUNNY   78  53  41 S16G29    29.96F
SPIRIT OF STL  MOSUNNY   77  51  40 S20G37    29.93F
COLUMBIA       CLOUDY    71  51  49 S18G29    29.87F
JEFFERSON CITY CLOUDY    72  50  45 S14       29.88F
ROLLA          LGT RAIN  74  52  46 S23G32    29.92F
OSAGE BEACH    CLOUDY    71  57  61 S20G28    29.87F
SPRINGFIELD    CLOUDY    68  60  75 S18       29.89S
BRANSON        CLOUDY    68  59  73 S15G22    29.92F
JOPLIN         CLOUDY    66  57  72 S15       29.88F
WEST PLAINS    CLOUDY    71  57  61 S15G23    29.97F

$$

IAZ060-094-KSZ022-034>040-054-083-096-NEZ052-066-093-202000-
...KANSAS...SOUTHEAST NEBRASKA AND IOWA...

CITY           SKY/WX    TMP DP  RH WIND       PRES   REMARKS
TOPEKA         CLOUDY    63  56  78 S12G21    29.81F
MANHATTAN      CLOUDY    61  54  77 SW17      29.79F
EMPORIA        CLOUDY    60  54  80 S16       29.83F
CHANUTE        CLOUDY    63  54  72 SW13      29.88S
WICHITA        PTSUNNY   58  53  84 S13       29.83F
OMAHA          LGT RAIN  61  56  83 S7        29.75R
LINCOLN        CLOUDY    62  55  77 S15       29.75F
FALLS CITY     CLOUDY    62  57  83 S14       29.77F
LAMONI         CLOUDY    59  57  93 S15G23    29.79F
DES MOINES     LGT RAIN  60  57  89 S16       29.77F FOG

$$





USA.gov is the U.S. government's official web portal to all federal, state and local government web resources and services.